Regional Weather Roundup
Issued by NWS Kansas City/Pleasant Hill, MO

Home | Current Version | Previous Version | Graphics & Text | Print | Product List | Glossary Off
Versions: 1 2 3 4 5 6 7 8 9 10 11 12 13 14 15 16 17 18 19 20 21 22 23 24 25 26 27 28 29 30 31 32 33 34 35 36 37 38 39 40 41 42 43 44 45 46 47 48 49 50

066
ASUS43 KEAX 101510
RWREAX

WEATHER ROUNDUP FOR EASTERN KANSAS AND NORTHWEST MISSOURI
NATIONAL WEATHER SERVICE KANSAS CITY/PLEASANT HILL MO
900 AM CST SAT DEC 10 2016

KSZ040-057-103>105-MOZ028-029-037-043-101600-
...KANSAS CITY METROPOLITAN AREA...

CITY           SKY/WX    TMP DP  RH WIND       PRES   REMARKS
K.C. INTL      CLOUDY    27  14  58 SE9       30.40F WCI  18
K.C. DOWNTOWN  CLOUDY    29  16  58 SE7       30.42F WCI  22
LEES SUMMIT    CLOUDY    28  17  63 SE10      30.42S WCI  19
OLATHE - IXD   CLOUDY    28  18  66 SE9       30.40F WCI  19
OLATHE - OJC   CLOUDY    27  16  63 SE7       30.40F WCI  19
LAWRENCE       CLOUDY    27  20  75 E6        30.40F WCI  20

$$

MOZ001>008-011>017-020>025-030>033-038>040-044>046-053-054-101600-
...NORTHERN AND CENTRAL MISSOURI...

CITY           SKY/WX    TMP DP  RH WIND       PRES   REMARKS
ST. JOSEPH     CLOUDY    27  14  58 SE6       30.42F WCI  20
MOSBY          CLOUDY    28  18  64 SE5       30.43F WCI  23
WARRENSBURG    CLOUDY    30  19  64 NE6       30.44F WCI  24
WHITEMAN AFB   CLOUDY    28  17  62 SE7       30.42F WCI  21
CLINTON        CLOUDY    32  19  59 SE6       30.45S WCI  26
SEDALIA        CLOUDY    29  16  58 SE9       30.46F WCI  20
WARSAW         NOT AVBL
CHILLICOTHE      N/A     26  13  57 SE7       30.46F WCI  18
KIRKSVILLE     CLOUDY    25  14  63 SE7       30.48S WCI  17

$$

MOZ041-047>049-056>058-063>065-088>090-097-101600-
...EASTERN AND SOUTHERN MISSOURI...

CITY           SKY/WX    TMP DP  RH WIND       PRES   REMARKS
ST. LOUIS INTL CLOUDY    29  14  53 SE6       30.56F WCI  23
SPIRIT OF STL  CLOUDY    27  17  66 SE5       30.56S WCI  22
COLUMBIA       CLOUDY    26  14  60 SE8       30.49S WCI  18
JEFFERSON CITY CLOUDY    27  14  58 SE5       30.52S WCI  22
ROLLA          CLOUDY    25  14  63 SE8       30.47F WCI  16
OSAGE BEACH    CLOUDY    28  17  63 VRB5      30.49F WCI  23
SPRINGFIELD    CLOUDY    31  17  56 SE13      30.42F WCI  21
BRANSON        CLOUDY    30  19  64 SE7       30.46S WCI  23
JOPLIN         CLOUDY    35  17  47 S6        30.43S WCI  30
WEST PLAINS    CLOUDY    24  18  77 S5        30.51R WCI  18

$$

IAZ060-094-KSZ022-034>040-054-083-096-NEZ052-066-093-101600-
...KANSAS...SOUTHEAST NEBRASKA AND IOWA...

CITY           SKY/WX    TMP DP  RH WIND       PRES   REMARKS
TOPEKA         CLOUDY    28  20  71 E5        30.39F WCI  23
MANHATTAN      CLOUDY    28  17  63 CALM      30.37R
EMPORIA        CLOUDY    28  19  69 SE9       30.34F WCI  19
CHANUTE        CLOUDY    33  21  61 SE8       30.39F WCI  26
WICHITA        CLOUDY    29  19  66 SE9       30.30F WCI  20
OMAHA          CLOUDY    23  17  78 E9        30.37F WCI  13
LINCOLN        CLOUDY    25  17  72 SE8       30.35S WCI  16
FALLS CITY     CLOUDY    27  16  63 SE8       30.38F WCI  19
LAMONI         CLOUDY    24  12  60 SE5       30.42S WCI  18
DES MOINES     FLURRIES  24  13  62 SE7       30.44S WCI  16

$$





USA.gov is the U.S. government's official web portal to all federal, state and local government web resources and services.